sat.trackr.live / text

‹ back to catalog

STARLINK-4622

NORAD 53648 · 2022-105A

PAYLOAD ACTIVE UNKNOWN

§ Identity

Operator
Country
US
Launch date
2022-08-31
Launch site
AFWTR
Launch vehicle
Mass (kg)
RCS (m²)

Purposes: comms

External: N2YO · Heavens-Above · Gunter

§ Orbital elements

Epoch: 2026-05-25T02:09:08.063424Z

Period
95.64 min
Inclination
97.4524°
Eccentricity
0.0001751
Mean motion
15.05591762 rev/d
Perigee alt
548.5 km
Apogee alt
550.9 km
Semi-major
6,927.8 km
B*
7.4266e-4
RAAN
25.0940°
Arg perigee
70.2351°
Mean anomaly
289.9064°
Rev number
20,473

§ Raw data

STARLINK-46221 53648U 22105A   26145.08967666  .00010656  00000+0  74266-3 0  99972 53648  97.4524  25.0940 0001751  70.2351 289.9064 15.05591762204736

JSON: /api/v1/satellites/53648 · /tle

For live sub-satellite position, see the globe view (requires WebGL).

§ Visibility from observer

Set your observer location to see the next 7 days of passes ≥ 10°. The values pass through the URL so the page stays shareable.

No JS? Fill the form by hand. The geolocation button needs JavaScript.